{"data":{"norad_id":62116,"intl_designator":"2024-222C","name":"STARLINK-32502","alt_names":[],"object_type":"PAYLOAD","status":"ACTIVE","operator":null,"country":"US","launch_date":"2024-11-27","launch_site_code":"AFETR","launch_vehicle":null,"mission":null,"orbit_class":"UNKNOWN","rcs_meters":null,"size_class":null,"mass_kg":null,"dimensions":null,"purposes":["comms"],"wikipedia_slug":null,"has_3d_model":false,"image_url":null,"decayed_at":null,"tle_current":{"epoch":"2026-05-25T03:58:00.657696Z","epoch_age_seconds":67685,"freshness":"FRESH","line1":"1 62116U 24222C   26145.16528539  .00017179  00000+0  63193-3 0  9994","line2":"2 62116  43.0044  64.3995 0001300 266.2722  93.7981 15.27601356 84500","mean_motion":15.27601356,"eccentricity":0.00013,"inclination_deg":43.0044,"raan_deg":64.3995,"arg_perigee_deg":266.2722,"mean_anomaly_deg":93.7981,"bstar":0.00063193,"rev_number":8450,"period_min":94.265430856295,"perigee_km":482.09320335847,"apogee_km":483.87709511727,"semimajor_km":6861.1221492379,"source":"CELESTRAK","updated_at":"2026-05-25T13:38:19.562435Z"}}}